K0SNA Weather Reports


Display with metric or nautical units.
time (UTC)temp
F
wind
direction
speed
MPH
gust
MPH
rain 1hr
in
rain 24hr
in
rain mn
in
humidity
%
barometer
mb
20260503192553 69 296 5.0 8.0 0.00 0.00 0.00 27 1006.6
20260503192049 69 64 5.0 7.0 0.00 0.00 0.00 27 1006.7
20260503191546 68 334 7.0 9.0 0.00 0.00 0.00 27 1006.7
20260503191043 70 329 5.0 9.0 0.00 0.00 0.00 28 1006.7
20260503190539 68 203 2.0 7.0 0.00 0.00 0.00 29 1006.6
20260503190036 68 321 4.0 11.0 0.00 0.00 0.00 29 1006.7
20260503185533 68 311 6.0 8.0 0.00 0.00 0.00 30 1006.7
20260503185027 68 359 5.0 7.0 0.00 0.00 0.00 30 1006.7
20260503184523 69 318 3.0 5.0 0.00 0.00 0.00 31 1006.7
20260503184020 68 305 4.0 9.0 0.00 0.00 0.00 31 1006.6
20260503183517 69 221 1.0 7.0 0.00 0.00 0.00 33 1006.6
20260503183014 70 205 2.0 8.0 0.00 0.00 0.00 33 1007.0
20260503182512 70 255 3.0 6.0 0.00 0.00 0.00 35 1006.9
20260503182010 69 196 3.0 7.0 0.00 0.00 0.00 31 1006.8
20260503181507 68 276 5.0 6.0 0.00 0.00 0.00 34 1007.0
20260503181003 68 262 5.0 8.0 0.00 0.00 0.00 34 1007.0
20260503180500 67 344 3.0 9.0 0.00 0.00 0.00 36 1006.9
20260503175957 68 344 5.0 10.0 0.00 0.00 0.00 35 1006.9
20260503175455 69 30 6.0 7.0 0.00 0.00 0.00 34 1006.9
20260503174951 68 293 3.0 6.0 0.00 0.00 0.00 34 1007.1
20260503174449 67 294 6.0 10.0 0.00 0.00 0.00 34 1007.2
20260503173944 67 345 6.0 7.0 0.00 0.00 0.00 35 1007.1
20260503173440 68 340 6.0 8.0 0.00 0.00 0.00 37 1007.2
20260503172937 67 270 5.0 8.0 0.00 0.00 0.00 37 1007.1
20260503172434 67 50 5.0 14.0 0.00 0.00 0.00 37 1007.2
20260503171931 68 356 3.0 8.0 0.00 0.00 0.00 38 1007.1
20260503171428 67 312 5.0 9.0 0.00 0.00 0.00 39 1007.2
20260503170925 68 330 5.0 9.0 0.00 0.00 0.00 39 1007.2
20260503170421 67 336 4.0 7.0 0.00 0.00 0.00 39 1007.2
20260503150814 63 325 5.0 10.0 0.00 0.00 0.00 42 1006.9
20260503150309 63 358 5.0 7.0 0.00 0.00 0.00 43 1006.9
20260503140234 59 302 5.0 6.0 0.00 0.00 0.00 49 1006.6
20260503131204 57 332 5.0 7.0 0.00 0.00 0.00 50 1006.2
20260503130701 56 353 5.0 8.0 0.00 0.00 0.00 50 1006.1
20260503130159 56 191 2.0 2.0 0.00 0.00 0.00 51 1006.1
20260503120124 53 233 2.0 2.0 0.00 0.00 0.00 53 1005.2
20260503110551 53 205 1.0 2.0 0.00 0.00 0.00 52 1004.6
20260503090438 57 255 4.0 7.0 0.00 0.00 0.00 45 1005.6
20260503081405 58 216 3.0 5.0 0.00 0.00 0.00 46 1006.0
20260503080902 58 195 2.0 6.0 0.00 0.00 0.00 45 1005.8
20260503080358 59 214 2.0 3.0 0.00 0.00 0.00 45 1006.0
20260503072835 60 221 9.0 13.0 0.00 0.00 0.00 44 1006.2
20260503072332 60 205 6.0 8.0 0.00 0.00 0.00 46 1006.2
20260503071828 60 199 3.0 6.0 0.00 0.00 0.00 47 1006.4
20260503071326 60 190 1.0 3.0 0.00 0.00 0.00 46 1006.2
20260503070821 60 207 1.0 2.0 0.00 0.00 0.00 45 1006.4
20260503070320 61 211 4.0 8.0 0.00 0.00 0.00 43 1006.7
20260503060238 59 259 7.0 9.0 0.00 0.00 0.00 46 1007.9
20260503054726 57 229 3.0 7.0 0.00 0.00 0.00 47 1008.0
20260503054223 57 220 2.0 6.0 0.00 0.00 0.00 48 1007.9
20260503053720 57 231 3.0 3.0 0.00 0.00 0.00 47 1008.0
20260503053219 57 208 3.0 3.0 0.00 0.00 0.00 47 1008.1
20260503052715 57 205 1.0 9.0 0.00 0.00 0.00 47 1008.4
20260503052212 57 226 4.0 5.0 0.00 0.00 0.00 47 1008.3
20260503051707 57 224 4.0 5.0 0.00 0.00 0.00 46 1008.2
20260503051205 57 219 4.0 5.0 0.00 0.00 0.00 46 1008.2
20260503050701 58 183 2.0 7.0 0.00 0.00 0.00 46 1008.1
20260503050158 58 198 0.0 2.0 0.00 0.00 0.00 46 1008.3
20260503045655 58 224 3.0 6.0 0.00 0.00 0.00 45 1008.3
20260503045153 58 218 1.0 2.0 0.00 0.00 0.00 45 1008.2
20260503044649 58 202 2.0 3.0 0.00 0.00 0.00 45 1008.4
20260503044147 58 180 1.0 6.0 0.00 0.00 0.00 45 1008.5
20260503043643 59 207 2.0 7.0 0.00 0.00 0.00 44 1008.5
20260503043140 58 210 2.0 2.0 0.00 0.00 0.00 45 1008.5
20260503042636 58 223 3.0 3.0 0.00 0.00 0.00 45 1008.6
20260503042132 58 177 1.0 3.0 0.00 0.00 0.00 46 1008.6
20260503041629 58 215 1.0 2.0 0.00 0.00 0.00 45 1008.5
20260503041127 58 212 1.0 2.0 0.00 0.00 0.00 46 1008.8
20260503040624 58 192 1.0 1.0 0.00 0.00 0.00 45 1009.0
20260503040122 59 214 3.0 3.0 0.00 0.00 0.00 45 1008.8
20260503035618 59 199 1.0 3.0 0.00 0.00 0.00 44 1008.9
20260503035116 59 202 2.0 2.0 0.00 0.00 0.00 45 1009.0
20260503034613 59 201 1.0 2.0 0.00 0.00 0.00 45 1009.0
20260503034110 59 195 0.0 0.0 0.00 0.00 0.00 45 1009.2
20260503033607 59 200 0.0 0.0 0.00 0.00 0.00 46 1009.3
20260503033105 59 193 0.0 0.0 0.00 0.00 0.00 45 1009.4
20260503032603 59 192 0.0 0.0 0.00 0.00 0.00 44 1009.5
20260503032101 60 201 0.0 1.0 0.00 0.00 0.00 44 1009.7
20260503031558 60 193 0.0 0.0 0.00 0.00 0.00 43 1009.9
20260503031056 61 193 0.0 2.0 0.00 0.00 0.00 41 1009.9
20260503030551 61 209 1.0 2.0 0.00 0.00 0.00 40 1010.1
20260503030049 62 206 3.0 5.0 0.00 0.00 0.00 39 1010.1
20260503025545 62 199 1.0 6.0 0.00 0.00 0.00 39 1010.4
20260503025043 62 218 3.0 8.0 0.00 0.00 0.00 39 1010.4
20260503024539 62 215 3.0 6.0 0.00 0.00 0.00 39 1010.5
20260503024037 62 215 3.0 6.0 0.00 0.00 0.00 39 1010.5
20260503023533 62 206 1.0 6.0 0.00 0.00 0.00 40 1010.5
20260503023031 62 208 1.0 2.0 0.00 0.00 0.00 41 1010.6
20260503022527 62 204 1.0 2.0 0.00 0.00 0.00 40 1010.7
20260503022021 62 203 0.0 3.0 0.00 0.00 0.00 40 1010.6
20260503021518 62 207 2.0 2.0 0.00 0.00 0.00 39 1010.9
20260503021015 63 217 1.0 5.0 0.00 0.00 0.00 38 1010.9
20260503020513 63 255 4.0 6.0 0.00 0.00 0.00 37 1010.8
20260503020009 63 231 4.0 5.0 0.00 0.00 0.00 38 1010.8
20260503015506 63 243 5.0 8.0 0.00 0.00 0.00 38 1010.9
20260503015003 63 222 3.0 5.0 0.00 0.00 0.00 38 1010.9
20260503014459 63 273 5.0 6.0 0.00 0.00 0.00 37 1010.9
20260503013957 63 242 3.0 6.0 0.00 0.00 0.00 36 1010.8
20260503013454 63 256 3.0 9.0 0.00 0.00 0.00 35 1010.8
20260503012951 63 290 3.0 5.0 0.00 0.00 0.00 36 1010.8
20260503012449 64 242 2.0 3.0 0.00 0.00 0.00 35 1010.7
20260503011945 64 262 4.0 5.0 0.00 0.00 0.00 35 1010.5
20260503011442 64 248 2.0 8.0 0.00 0.00 0.00 35 1010.8
20260503010939 64 232 3.0 8.0 0.00 0.00 0.00 35 1011.0
20260503010436 64 275 3.0 7.0 0.00 0.00 0.00 35 1010.8
20260503005933 64 221 5.0 10.0 0.00 0.00 0.00 36 1011.0
20260503005430 64 243 4.0 5.0 0.00 0.00 0.00 36 1010.9
20260503004927 63 236 2.0 3.0 0.00 0.00 0.00 38 1011.0
20260503004424 63 226 1.0 5.0 0.00 0.00 0.00 38 1010.9
20260503003921 63 208 0.0 2.0 0.00 0.00 0.00 38 1011.0
20260503003418 63 283 5.0 7.0 0.00 0.00 0.00 38 1011.2
20260503002915 63 246 1.0 5.0 0.00 0.00 0.00 39 1011.3
20260503002412 63 207 7.0 10.0 0.00 0.00 0.00 40 1011.4
20260503001908 64 332 5.0 9.0 0.00 0.00 0.00 38 1011.3
20260503001405 64 217 3.0 7.0 0.00 0.00 0.00 37 1011.1
20260503000903 64 243 3.0 6.0 0.00 0.00 0.00 37 1011.2
20260503000400 64 277 9.0 11.0 0.00 0.00 0.00 37 1011.3
20260502235856 64 252 5.0 9.0 0.00 0.00 0.00 37 1011.4
20260502235353 64 287 5.0 9.0 0.00 0.00 0.00 37 1011.5
20260502234851 65 280 8.0 14.0 0.00 0.00 0.00 36 1011.6
20260502234347 65 199 1.0 3.0 0.00 0.00 0.00 35 1011.4
20260502233844 65 237 2.0 2.0 0.00 0.00 0.00 35 1011.3
20260502233340 65 235 2.0 2.0 0.00 0.00 0.00 34 1011.2
20260502232837 65 354 3.0 6.0 0.00 0.00 0.00 34 1011.3
20260502232334 66 267 9.0 14.0 0.00 0.00 0.00 33 1011.4
20260502231830 66 250 3.0 7.0 0.00 0.00 0.00 32 1011.3
20260502231328 66 208 3.0 9.0 0.00 0.00 0.00 32 1011.4
20260502230826 66 208 2.0 5.0 0.00 0.00 0.00 32 1011.4
20260502230324 66 215 3.0 5.0 0.00 0.00 0.00 32 1011.3
20260502225820 66 249 4.0 6.0 0.00 0.00 0.00 32 1011.4
20260502225317 66 221 3.0 6.0 0.00 0.00 0.00 32 1011.2
20260502224814 67 234 8.0 9.0 0.00 0.00 0.00 32 1011.5
20260502224310 66 206 2.0 5.0 0.00 0.00 0.00 32 1011.3
20260502223808 66 210 3.0 6.0 0.00 0.00 0.00 31 1011.4
20260502223306 66 228 7.0 7.0 0.00 0.00 0.00 31 1011.7
20260502222803 66 283 4.0 9.0 0.00 0.00 0.00 32 1011.7
20260502222301 66 213 1.0 7.0 0.00 0.00 0.00 31 1011.9
20260502221756 66 203 8.0 11.0 0.00 0.00 0.00 31 1011.7
20260502221252 66 205 5.0 6.0 0.00 0.00 0.00 32 1011.8
20260502220749 66 208 6.0 8.0 0.00 0.00 0.00 32 1012.0
20260502220245 66 229 3.0 6.0 0.00 0.00 0.00 32 1012.0
20260502215742 66 202 5.0 6.0 0.00 0.00 0.00 31 1012.0
20260502215239 66 231 2.0 7.0 0.00 0.00 0.00 33 1012.1
20260502214737 66 243 5.0 10.0 0.00 0.00 0.00 32 1012.2
20260502214235 66 219 3.0 6.0 0.00 0.00 0.00 32 1012.2
20260502213731 66 295 5.0 13.0 0.00 0.00 0.00 31 1012.2
20260502213228 66 241 4.0 8.0 0.00 0.00 0.00 31 1012.5
20260502212726 67 306 5.0 9.0 0.00 0.00 0.00 31 1012.4
20260502212224 68 279 5.0 7.0 0.00 0.00 0.00 31 1012.5
20260502211720 68 212 3.0 6.0 0.00 0.00 0.00 30 1012.6
20260502211217 67 239 5.0 7.0 0.00 0.00 0.00 30 1012.7
20260502210714 66 324 3.0 8.0 0.00 0.00 0.00 31 1012.8
20260502210211 66 316 6.0 7.0 0.00 0.00 0.00 31 1013.1
20260502205709 67 248 4.0 10.0 0.00 0.00 0.00 30 1012.9
20260502205205 67 238 2.0 6.0 0.00 0.00 0.00 31 1013.2
20260502204702 66 209 3.0 7.0 0.00 0.00 0.00 31 1013.3
20260502204200 65 269 9.0 10.0 0.00 0.00 0.00 31 1013.3
20260502203657 66 277 4.0 10.0 0.00 0.00 0.00 32 1013.4
20260502203155 66 243 6.0 11.0 0.00 0.00 0.00 32 1013.5
20260502202648 65 223 1.0 10.0 0.00 0.00 0.00 31 1013.5
20260502202147 66 199 5.0 7.0 0.00 0.00 0.00 31 1013.9
20260502201644 66 240 8.0 10.0 0.00 0.00 0.00 30 1014.0
20260502201140 66 215 2.0 5.0 0.00 0.00 0.00 31 1014.1
20260502200636 65 208 2.0 6.0 0.00 0.00 0.00 33 1014.2
20260502200133 64 294 5.0 11.0 0.00 0.00 0.00 33 1014.2
20260502195632 64 233 7.0 10.0 0.00 0.00 0.00 32 1014.5
20260502195127 63 214 1.0 7.0 0.00 0.00 0.00 33 1014.5
20260502194624 64 266 7.0 10.0 0.00 0.00 0.00 31 1014.8
20260502194121 63 287 3.0 10.0 0.00 0.00 0.00 33 1014.7
20260502193617 63 223 7.0 20.0 0.00 0.00 0.00 31 1014.8
20260502193114 63 272 3.0 9.0 0.00 0.00 0.00 32 1014.9